Flag for Ukraine Weather past 2 weeks in L'viv, Ukraine

Now
50 °F

Partly sunny.


Feels Like: 44 °F
Forecast: 35 / 45 °F
Wind: 17 mph from Southwest

Location: L'Viv Airport

Current Time: Mar 30, 2015 at 5:33:49 PM

Latest Report: Mar 30, 2015 at 5:00 PM


Visibility: N/A

Pressure: 29.39 "Hg

Humidity: 67%

Dew point: 39 °F

Location of L'vivLocation

Historic Weather in L'viv — Graph

°F

L'viv temperature yesterday

Maximum temperature yesterday: 45 °F (at 5:30 PM)
Minimum temperature yesterday: 36 °F (at 9:00 PM)
Average temperature yesterday: 39 °F

Past Weeks' High & Low Weather Summary

 TemperatureHumidityPressure
High66 °F (Mar 26, 1:30 PM)100% (Mar 19, 11:30 PM)30.72 "Hg (Mar 19, 11:30 PM)
Low23 °F (Mar 20, 5:30 AM)27% (Mar 24, 3:00 PM)29.39 "Hg (Mar 30, 10:00 AM)
Average42 °F69%30.11 "Hg
* Reported Mar 15 3:00 PM — Mar 30 4:30 PM, L'viv, Weather by CustomWeather, © 2015

Note: Actual official high and low records may vary slightly from our data, if they occured in-between our weather recording intervals... More about our weather records

Advertising

L'viv weather history for previous 24 hours

 ConditionsComfort  
Time TempWeatherWind HumidityBarometerVisibility
4:30 PM
Mon, Mar 30
50 °FBroken clouds.15 mph71%29.39 "HgN/A
4:00 PM48 °FMostly cloudy.17 mph76%29.39 "HgN/A
3:30 PM48 °FMostly cloudy.13 mph76%29.39 "HgN/A
3:00 PM48 °FOvercast.15 mph71%29.39 "HgN/A
2:30 PM48 °FOvercast.17 mph71%29.39 "HgN/A
2:00 PM48 °FOvercast.15 mph71%29.39 "HgN/A
1:30 PM48 °FOvercast.13 mph76%29.39 "HgN/A
1:00 PM46 °FLight rain. Overcast.15 mph76%29.39 "HgN/A
12:30 PM46 °FLight rain. Overcast.8 mph82%29.39 "HgN/A
12:00 PM48 °FLight rain. Overcast.13 mph76%29.39 "HgN/A
11:30 AM46 °FLight rain. Overcast.13 mph76%29.39 "HgN/A
11:00 AM46 °FLight rain. Mostly cloudy.17 mph76%29.39 "HgN/A
10:30 AM48 °FLight rain. More clouds than sun.20 mph71%29.39 "HgN/A
10:00 AM46 °FMore clouds than sun.15 mph71%29.39 "HgN/A
9:30 AM46 °FMore clouds than sun.15 mph71%29.42 "HgN/A
9:00 AM46 °FBroken clouds.15 mph76%29.42 "HgN/A
8:30 AM45 °FSunny.13 mph76%29.42 "Hg10 mi
8:00 AM45 °FClear.13 mph76%29.42 "Hg10 mi
7:30 AM45 °FMostly cloudy.13 mph76%29.42 "HgN/A
7:00 AM45 °FMostly cloudy.13 mph76%29.42 "HgN/A
6:30 AM45 °FMostly cloudy.13 mph76%29.45 "HgN/A
6:00 AM45 °FMostly cloudy.10 mph76%29.45 "HgN/A
5:30 AM45 °FMostly cloudy.10 mph76%29.45 "HgN/A
5:00 AM43 °FSprinkles. Partly cloudy.10 mph81%29.45 "HgN/A
4:30 AM43 °FSprinkles. Partly cloudy.8 mph76%29.47 "HgN/A
4:00 AM41 °FClear.8 mph81%29.47 "Hg10 mi
3:30 AM41 °FClear.10 mph81%29.50 "Hg10 mi
3:00 AM43 °FClear.8 mph76%29.53 "Hg10 mi
2:30 AM41 °FClear.8 mph87%29.53 "HgN/A
2:00 AM39 °FClear.3 mph93%29.53 "HgN/A
1:30 AM39 °FClear.6 mph93%29.56 "Hg6 mi
1:00 AM39 °FClear.6 mph93%29.56 "Hg6 mi
12:30 AM39 °FClear.3 mph93%29.59 "Hg4 mi
12:00 AM39 °FClear.6 mph93%29.59 "Hg4 mi
11:30 PM
Sun, Mar 29
39 °FClear.6 mph93%29.62 "Hg4 mi
11:00 PM37 °FFog.8 mph100%29.62 "Hg3 mi
10:30 PM36 °FFog.8 mph100%29.62 "Hg3 mi
10:00 PM37 °FFog.6 mph93%29.65 "Hg3 mi
9:30 PM37 °FFog.6 mph100%29.65 "Hg3 mi
9:00 PM36 °FFog.3 mph93%29.65 "Hg3 mi
8:30 PM37 °FClear.6 mph93%29.65 "Hg4 mi
8:00 PM41 °FClear.3 mph87%29.65 "Hg6 mi
7:30 PM43 °FPartly sunny.1 mph81%29.65 "HgN/A
7:00 PM45 °FOvercast.1 mph76%29.65 "HgN/A
6:30 PM45 °FOvercast.1 mph76%29.68 "HgN/A
6:00 PM45 °FOvercast.1 mph76%29.68 "HgN/A
5:30 PM45 °FOvercast.3 mph76%29.68 "HgN/A
5:00 PM43 °FOvercast.6 mph87%29.68 "HgN/A
Weather by CustomWeather, © 2015

See weather overviewHow to use our weather pages